This is the latest recevied weather packets stored in our database for station/object W1REE. If no packets are shown the sender has not sent any weather packets the latest 1 day(s).
| Time | Temp. | Humidity | Pressure | Rain* | Wind** | Luminosity | Snow |
|---|---|---|---|---|---|---|---|
| 1778006258 | 3.89° C | 95% | 1014.8 hPa | 0 mm | 0 m/s | 140 W/m² | - |
| 1778005956 | 3.89° C | 95% | 1014.7 hPa | 0 mm | 0 m/s | 128 W/m² | - |
| 1778005652 | 3.89° C | 95% | 1014.8 hPa | 0 mm | 0 m/s | 99 W/m² | - |
| 1778005349 | 3.89° C | 95% | 1015 hPa | 1.78 mm | 0 m/s | 94 W/m² | - |
| 1778005045 | 3.89° C | 95% | 1015.1 hPa | 1.78 mm | 0 m/s | 101 W/m² | - |
| 1778004743 | 3.89° C | 95% | 1015 hPa | 0 mm | 0 m/s | 94 W/m² | - |
| 1778004440 | 3.89° C | 95% | 1015.1 hPa | 0 mm | 0 m/s | 94 W/m² | - |
| 1778004136 | 3.89° C | 95% | 1015.2 hPa | 0 mm | 0 m/s | 93 W/m² | - |
| 1778003833 | 3.89° C | 95% | 1015.2 hPa | 1.27 mm | 0 m/s | 103 W/m² | - |
| 1778003529 | 3.89° C | 95% | 1015.4 hPa | 1.27 mm | 0 m/s | 117 W/m² | - |
| 1778003225 | 3.89° C | 94% | 1015.4 hPa | 0 mm | 0 m/s | 123 W/m² | - |
| 1778002922 | 3.89° C | 95% | 1015.6 hPa | 0 mm | 0.45 m/s, 16° | 117 W/m² | - |
| 1778002619 | 3.89° C | 94% | 1015.4 hPa | 0 mm | 0 m/s | 110 W/m² | - |
| 1778002315 | 3.33° C | 94% | 1015.4 hPa | 1.78 mm | 0 m/s | 118 W/m² | - |
| 1778002013 | 3.33° C | 94% | 1015.4 hPa | 1.78 mm | 0 m/s | 104 W/m² | - |
| 1778001710 | 3.33° C | 94% | 1015.6 hPa | 1.27 mm | 0 m/s | 92 W/m² | - |
| 1778001409 | 3.33° C | 94% | 1015.6 hPa | 1.27 mm | 0 m/s | 52 W/m² | - |
| 1778001107 | 3.33° C | 93% | 1015.4 hPa | 1.78 mm | 0 m/s | 59 W/m² | - |
| 1778000804 | 3.33° C | 93% | 1015.6 hPa | 1.78 mm | 0 m/s | 55 W/m² | - |
| 1778000501 | 3.89° C | 93% | 1015.6 hPa | 1.27 mm | 0.89 m/s, 338° | 73 W/m² | - |
| 1778000200 | 3.89° C | 93% | 1015.7 hPa | 1.27 mm | 0 m/s | 76 W/m² | - |
| 1777999897 | 3.89° C | 93% | 1015.6 hPa | 1.78 mm | 0.45 m/s, 6° | 78 W/m² | - |
| 1777999592 | 3.89° C | 93% | 1015.6 hPa | 1.78 mm | 0 m/s | 65 W/m² | - |
| 1777999290 | 3.89° C | 93% | 1015.7 hPa | 0 mm | 0 m/s | 57 W/m² | - |
| 1777998988 | 3.89° C | 92% | 1015.7 hPa | 1.27 mm | 0 m/s | 45 W/m² | - |
* Rain latest hour (hover to see other rain measurements)
** Current wind speed in m/s (hover to see current wind gust speed)